EIN5GV EIDW-LFBO

Flight info

Callsign EIN5GV
Flight time 1h 47m
Altitude 37000
Route PESIT4E PESIT DCT BAKUR DCT GUBJE DCT GISOK DCT TACQI DCT MANIG DCT KORER UM616 TERPO/N0428F330 UM616 TUPAR DCT CNA DCT UVELI DCT SECHE
Aircraft A320/M-SDE3FGHIRWY/LB1

Departure

Time 2026-04-30 11:52
Airport Dublin Airport (EIDW)

Arrival

Time 2026-04-30 13:39
Airport Toulouse-Blagnac Airport (LFBO)
Time Latitude Longitude Altitude Speed Heading
2026-04-30 11:16 53.42265 -6.23896 218 ft 0 kts 27°
2026-04-30 11:39 53.42256 -6.23904 213 ft 4 kts 22°
2026-04-30 11:40 53.42234 -6.23909 211 ft 4 kts 325°
2026-04-30 11:40 53.42218 -6.23882 214 ft 4 kts 302°
2026-04-30 11:40 53.42205 -6.23843 211 ft 4 kts 300°
2026-04-30 11:40 53.42194 -6.23813 212 ft 3 kts 309°
2026-04-30 11:41 53.42176 -6.23780 217 ft 3 kts 310°
2026-04-30 11:41 53.42170 -6.23768 211 ft 0 kts 305°
2026-04-30 11:43 53.42190 -6.23814 215 ft 7 kts 306°
2026-04-30 11:44 53.42212 -6.23875 215 ft 5 kts 299°
2026-04-30 11:44 53.42229 -6.23926 213 ft 6 kts 298°
2026-04-30 11:44 53.42257 -6.24041 211 ft 12 kts 276°
2026-04-30 11:44 53.42226 -6.24150 216 ft 10 kts 224°
2026-04-30 11:45 53.42179 -6.24221 211 ft 8 kts 225°
2026-04-30 11:45 53.42162 -6.24384 213 ft 20 kts 277°
2026-04-30 11:45 53.42174 -6.24603 211 ft 18 kts 275°
2026-04-30 11:45 53.42185 -6.24804 211 ft 16 kts 275°
2026-04-30 11:46 53.42195 -6.24986 211 ft 15 kts 275°
2026-04-30 11:46 53.42204 -6.25150 210 ft 14 kts 275°
2026-04-30 11:46 53.42212 -6.25306 217 ft 14 kts 275°
2026-04-30 11:46 53.42226 -6.25583 211 ft 28 kts 279°
2026-04-30 11:47 53.42241 -6.25845 215 ft 20 kts 275°
2026-04-30 11:47 53.42254 -6.26072 211 ft 19 kts 276°
2026-04-30 11:47 53.42266 -6.26280 216 ft 17 kts 276°
2026-04-30 11:47 53.42276 -6.26472 218 ft 16 kts 275°
2026-04-30 11:48 53.42285 -6.26647 211 ft 15 kts 275°
2026-04-30 11:48 53.42298 -6.26873 211 ft 22 kts 276°
2026-04-30 11:48 53.42311 -6.27114 214 ft 20 kts 275°
2026-04-30 11:48 53.42324 -6.27338 214 ft 18 kts 275°
2026-04-30 11:49 53.42336 -6.27544 211 ft 17 kts 275°
2026-04-30 11:49 53.42345 -6.27733 211 ft 15 kts 275°
2026-04-30 11:49 53.42353 -6.27905 213 ft 14 kts 275°
2026-04-30 11:49 53.42363 -6.28060 211 ft 13 kts 276°
2026-04-30 11:50 53.42372 -6.28197 211 ft 11 kts 275°
2026-04-30 11:50 53.42353 -6.28307 213 ft 11 kts 220°
2026-04-30 11:50 53.42292 -6.28309 211 ft 8 kts 158°
2026-04-30 11:50 53.42241 -6.28252 214 ft 14 kts 146°
2026-04-30 11:51 53.42192 -6.28126 220 ft 12 kts 96°
2026-04-30 11:51 53.42181 -6.27897 212 ft 42 kts 94°
2026-04-30 11:51 53.42131 -6.26986 214 ft 111 kts 95°
2026-04-30 11:51 53.42045 -6.25429 414 ft 143 kts 96°
2026-04-30 11:52 53.41931 -6.23783 1109 ft 143 kts 95°
2026-04-30 11:52 53.41833 -6.22105 1763 ft 151 kts 99°
2026-04-30 11:52 53.41726 -6.20220 2054 ft 174 kts 99°
2026-04-30 11:52 53.41627 -6.18085 2381 ft 195 kts 101°
2026-04-30 11:53 53.41495 -6.15675 2778 ft 218 kts 101°
2026-04-30 11:53 53.41332 -6.13029 3346 ft 237 kts 102°
2026-04-30 11:53 53.41141 -6.10212 4092 ft 247 kts 102°
2026-04-30 11:53 53.40951 -6.07323 4962 ft 252 kts 101°
2026-04-30 11:54 53.40755 -6.04363 5764 ft 257 kts 105°
2026-04-30 11:54 53.39943 -6.01759 6562 ft 255 kts 139°
2026-04-30 11:54 53.38370 -6.00469 7378 ft 258 kts 169°
2026-04-30 11:54 53.36566 -6.00409 8257 ft 261 kts 181°
2026-04-30 11:55 53.34753 -6.00753 9143 ft 264 kts 184°
2026-04-30 11:55 53.32924 -6.01129 10001 ft 266 kts 182°
2026-04-30 11:55 53.31058 -6.01413 10571 ft 278 kts 180°
2026-04-30 11:55 53.29045 -6.01695 10812 ft 302 kts 185°
2026-04-30 11:56 53.26975 -6.02626 11372 ft 315 kts 194°
2026-04-30 11:56 53.24868 -6.03779 12104 ft 318 kts 192°
2026-04-30 11:56 53.22775 -6.04852 12849 ft 320 kts 192°
2026-04-30 11:56 53.20627 -6.05924 13628 ft 323 kts 191°
2026-04-30 11:57 53.18431 -6.06635 14308 ft 320 kts 181°
2026-04-30 11:57 53.16201 -6.06979 14967 ft 323 kts 181°
2026-04-30 11:57 53.13957 -6.07340 15625 ft 325 kts 181°
2026-04-30 11:57 53.11697 -6.07539 16267 ft 325 kts 174°
2026-04-30 11:58 53.09466 -6.06980 16918 ft 325 kts 163°
2026-04-30 11:58 53.07280 -6.05971 17561 ft 327 kts 162°
2026-04-30 11:58 53.05073 -6.04954 18205 ft 330 kts 163°
2026-04-30 11:58 53.02850 -6.03937 18781 ft 333 kts 163°
2026-04-30 11:59 53.00607 -6.02911 19322 ft 336 kts 163°
2026-04-30 11:59 52.98346 -6.01877 19852 ft 339 kts 163°
2026-04-30 11:59 52.96057 -6.00835 20392 ft 342 kts 163°
2026-04-30 11:59 52.93754 -5.99792 20933 ft 345 kts 163°
2026-04-30 12:00 52.91428 -5.98745 21472 ft 347 kts 163°
2026-04-30 12:00 52.89878 -5.98047 21819 ft 349 kts 163°
2026-04-30 12:00 52.87524 -5.96984 22350 ft 352 kts 163°
2026-04-30 12:00 52.85147 -5.95907 22875 ft 356 kts 163°
2026-04-30 12:01 52.82751 -5.94821 23357 ft 359 kts 163°
2026-04-30 12:01 52.80328 -5.93724 23817 ft 363 kts 163°
2026-04-30 12:01 52.77079 -5.92258 24345 ft 367 kts 163°
2026-04-30 12:01 52.75410 -5.91506 24609 ft 369 kts 163°
2026-04-30 12:02 52.72950 -5.90403 24991 ft 372 kts 163°
2026-04-30 12:02 52.70447 -5.89279 25361 ft 374 kts 163°
2026-04-30 12:02 52.67925 -5.88147 25731 ft 377 kts 163°
2026-04-30 12:02 52.65378 -5.87005 26092 ft 380 kts 163°
2026-04-30 12:03 52.62815 -5.85857 26444 ft 383 kts 163°
2026-04-30 12:03 52.57640 -5.83536 27157 ft 387 kts 163°
2026-04-30 12:03 52.55030 -5.82372 27504 ft 390 kts 163°
2026-04-30 12:04 52.52406 -5.81207 27838 ft 392 kts 164°
2026-04-30 12:04 52.49763 -5.80036 28182 ft 394 kts 164°
2026-04-30 12:04 52.47136 -5.78874 28509 ft 397 kts 164°
2026-04-30 12:04 52.44459 -5.77692 28838 ft 399 kts 164°
2026-04-30 12:05 52.41770 -5.76501 29133 ft 401 kts 164°
2026-04-30 12:05 52.39063 -5.75296 29438 ft 404 kts 163°
2026-04-30 12:05 52.36360 -5.74032 29769 ft 405 kts 162°
2026-04-30 12:05 52.33652 -5.72711 30083 ft 407 kts 162°
2026-04-30 12:06 52.30939 -5.71364 30342 ft 408 kts 162°
2026-04-30 12:06 52.28216 -5.70011 30598 ft 410 kts 162°
2026-04-30 12:06 52.25481 -5.68665 30853 ft 411 kts 162°
2026-04-30 12:06 52.22788 -5.67098 31096 ft 411 kts 157°
2026-04-30 12:07 52.20138 -5.65298 31344 ft 412 kts 157°
2026-04-30 12:07 52.17488 -5.63511 31638 ft 411 kts 157°
2026-04-30 12:07 52.14844 -5.61735 31988 ft 410 kts 157°
2026-04-30 12:07 52.12214 -5.59971 32383 ft 406 kts 157°
2026-04-30 12:08 52.09636 -5.58242 32747 ft 404 kts 157°
2026-04-30 12:08 52.07042 -5.56504 33095 ft 402 kts 157°
2026-04-30 12:08 52.04456 -5.54773 33432 ft 401 kts 157°
2026-04-30 12:08 52.01905 -5.52965 33766 ft 400 kts 155°
2026-04-30 12:09 51.99395 -5.51026 34101 ft 398 kts 154°
2026-04-30 12:09 51.96916 -5.49021 34369 ft 398 kts 153°
2026-04-30 12:09 51.94448 -5.46998 34604 ft 398 kts 153°
2026-04-30 12:09 51.91967 -5.44973 34785 ft 399 kts 154°
2026-04-30 12:10 51.89472 -5.42969 34977 ft 400 kts 154°
2026-04-30 12:10 51.86966 -5.40986 35156 ft 401 kts 154°
2026-04-30 12:10 51.84450 -5.39017 35352 ft 402 kts 154°
2026-04-30 12:10 51.81932 -5.37057 35542 ft 402 kts 154°
2026-04-30 12:11 51.79409 -5.35088 35728 ft 403 kts 154°
2026-04-30 12:11 51.76914 -5.33138 35902 ft 403 kts 154°
2026-04-30 12:11 51.74353 -5.31140 36085 ft 404 kts 154°
2026-04-30 12:11 51.71853 -5.29194 36244 ft 405 kts 154°
2026-04-30 12:12 51.69313 -5.27220 36425 ft 405 kts 155°
2026-04-30 12:12 51.66766 -5.25239 36571 ft 406 kts 155°
2026-04-30 12:12 51.64218 -5.23255 36728 ft 407 kts 155°
2026-04-30 12:12 51.61665 -5.21269 36875 ft 408 kts 155°
2026-04-30 12:13 51.59109 -5.19287 37050 ft 408 kts 155°
2026-04-30 12:13 51.53992 -5.15333 37104 ft 407 kts 155°
2026-04-30 12:14 51.49090 -5.10799 37108 ft 409 kts 142°
2026-04-30 12:14 51.44814 -5.04763 37104 ft 410 kts 140°
2026-04-30 12:15 51.40534 -4.98686 37095 ft 411 kts 140°
2026-04-30 12:15 51.36266 -4.92673 37095 ft 411 kts 140°
2026-04-30 12:16 51.31961 -4.86630 37093 ft 412 kts 140°
2026-04-30 12:16 51.27655 -4.80596 37104 ft 412 kts 141°
2026-04-30 12:17 51.21184 -4.71554 37085 ft 412 kts 140°
2026-04-30 12:17 51.16857 -4.65531 37084 ft 413 kts 140°
2026-04-30 12:18 51.12521 -4.59502 37085 ft 414 kts 140°
2026-04-30 12:18 51.08177 -4.53475 37089 ft 414 kts 141°
2026-04-30 12:19 51.03776 -4.47581 37088 ft 413 kts 147°
2026-04-30 12:19 50.98933 -4.42693 37093 ft 412 kts 149°
2026-04-30 12:20 50.94097 -4.37883 37092 ft 413 kts 149°
2026-04-30 12:20 50.89228 -4.33037 37096 ft 413 kts 149°
2026-04-30 12:21 50.84355 -4.28197 37109 ft 413 kts 149°
2026-04-30 12:21 50.79478 -4.23365 37116 ft 413 kts 149°
2026-04-30 12:22 50.74611 -4.18542 37108 ft 413 kts 149°
2026-04-30 12:22 50.69743 -4.13742 37118 ft 412 kts 149°
2026-04-30 12:23 50.64873 -4.08965 37127 ft 412 kts 149°
2026-04-30 12:23 50.60043 -4.04221 37135 ft 411 kts 149°
2026-04-30 12:24 50.55181 -3.99458 37134 ft 411 kts 149°
2026-04-30 12:24 50.50335 -3.94721 37137 ft 410 kts 149°
2026-04-30 12:25 50.45495 -3.89998 37136 ft 409 kts 149°
2026-04-30 12:25 50.40650 -3.85297 37136 ft 409 kts 149°
2026-04-30 12:26 50.35798 -3.80593 37140 ft 410 kts 149°
2026-04-30 12:26 50.30937 -3.75901 37128 ft 410 kts 149°
2026-04-30 12:27 50.26105 -3.71248 37112 ft 410 kts 149°
2026-04-30 12:27 50.21245 -3.66566 37097 ft 411 kts 149°
2026-04-30 12:28 50.16363 -3.61873 37097 ft 412 kts 149°
2026-04-30 12:28 50.11461 -3.57195 37104 ft 413 kts 149°
2026-04-30 12:29 50.06554 -3.52510 37092 ft 414 kts 149°
2026-04-30 12:29 50.01640 -3.47815 37097 ft 415 kts 149°
2026-04-30 12:30 49.96715 -3.43125 37094 ft 415 kts 149°
2026-04-30 12:30 49.91813 -3.38475 37098 ft 416 kts 149°
2026-04-30 12:31 49.86874 -3.33800 37102 ft 416 kts 149°
2026-04-30 12:31 49.81926 -3.29133 37097 ft 416 kts 149°
2026-04-30 12:32 49.76730 -3.25271 37099 ft 415 kts 164°
2026-04-30 12:32 49.71116 -3.23163 37103 ft 415 kts 166°
2026-04-30 12:33 49.65497 -3.21063 37095 ft 416 kts 166°
2026-04-30 12:33 49.59877 -3.18947 37094 ft 416 kts 166°
2026-04-30 12:34 49.54256 -3.16836 37092 ft 416 kts 166°
2026-04-30 12:34 49.48629 -3.14730 37092 ft 416 kts 166°
2026-04-30 12:35 49.42991 -3.12641 37089 ft 416 kts 166°
2026-04-30 12:35 49.37345 -3.10542 37073 ft 417 kts 166°
2026-04-30 12:36 49.31735 -3.08459 37071 ft 417 kts 166°
2026-04-30 12:36 49.26056 -3.06363 37066 ft 417 kts 166°
2026-04-30 12:37 49.20441 -3.04295 37062 ft 418 kts 166°
2026-04-30 12:37 49.14786 -3.02214 37063 ft 418 kts 166°
2026-04-30 12:38 49.09118 -3.00141 37060 ft 419 kts 166°
2026-04-30 12:38 49.03442 -2.98072 37064 ft 419 kts 166°
2026-04-30 12:39 48.97761 -2.96002 37062 ft 420 kts 166°
2026-04-30 12:39 48.92069 -2.93928 37065 ft 420 kts 166°
2026-04-30 12:40 48.86378 -2.91858 37063 ft 421 kts 166°
2026-04-30 12:40 48.80680 -2.89793 37063 ft 421 kts 166°
2026-04-30 12:41 48.74980 -2.87729 37060 ft 421 kts 166°
2026-04-30 12:41 48.69317 -2.85683 37059 ft 421 kts 166°
2026-04-30 12:42 48.63583 -2.83623 37061 ft 421 kts 166°
2026-04-30 12:42 48.57925 -2.81590 37057 ft 421 kts 166°
2026-04-30 12:43 48.52216 -2.79543 37052 ft 421 kts 166°
2026-04-30 12:43 48.46504 -2.77503 37052 ft 421 kts 166°
2026-04-30 12:44 48.40796 -2.75467 37051 ft 421 kts 166°
2026-04-30 12:44 48.35116 -2.73446 37052 ft 421 kts 166°
2026-04-30 12:45 48.30339 -2.71750 37050 ft 421 kts 166°
2026-04-30 12:45 48.24631 -2.69732 37053 ft 421 kts 166°
2026-04-30 12:46 48.18931 -2.67712 37051 ft 421 kts 166°
2026-04-30 12:46 48.13210 -2.65688 37052 ft 422 kts 166°
2026-04-30 12:47 48.07532 -2.63688 37060 ft 422 kts 167°
2026-04-30 12:47 48.01818 -2.61700 37063 ft 422 kts 167°
2026-04-30 12:48 47.96095 -2.59704 37063 ft 422 kts 167°
2026-04-30 12:48 47.90381 -2.57704 37068 ft 421 kts 166°
2026-04-30 12:49 47.84666 -2.55706 37068 ft 421 kts 167°
2026-04-30 12:49 47.78956 -2.53725 37066 ft 421 kts 167°
2026-04-30 12:50 47.73240 -2.51723 37049 ft 422 kts 164°
2026-04-30 12:50 47.67946 -2.48036 37044 ft 423 kts 144°
2026-04-30 12:51 47.63777 -2.41969 37045 ft 425 kts 131°
2026-04-30 12:51 47.59916 -2.35306 37048 ft 426 kts 132°
2026-04-30 12:52 47.56027 -2.28691 37049 ft 426 kts 132°
2026-04-30 12:52 47.52120 -2.22077 37049 ft 426 kts 132°
2026-04-30 12:53 47.48221 -2.15461 37049 ft 427 kts 132°
2026-04-30 12:53 47.44241 -2.08702 37054 ft 427 kts 132°
2026-04-30 12:54 47.40421 -2.02235 37044 ft 427 kts 132°
2026-04-30 12:54 47.36506 -1.95620 37048 ft 428 kts 132°
2026-04-30 12:55 47.32582 -1.89002 37048 ft 428 kts 132°
2026-04-30 12:55 47.28671 -1.82445 37048 ft 428 kts 135°
2026-04-30 12:56 47.26368 -1.79686 37049 ft 426 kts 148°
2026-04-30 12:56 47.23848 -1.77387 37051 ft 426 kts 149°
2026-04-30 12:56 47.18784 -1.72835 37050 ft 426 kts 149°
2026-04-30 12:57 47.13712 -1.68300 37062 ft 427 kts 149°
2026-04-30 12:57 47.08669 -1.63796 37052 ft 426 kts 149°
2026-04-30 12:58 47.03599 -1.59272 37048 ft 427 kts 149°
2026-04-30 12:58 46.98510 -1.54738 37054 ft 427 kts 149°
2026-04-30 12:59 46.93421 -1.50215 37073 ft 427 kts 149°
2026-04-30 12:59 46.88368 -1.45732 37079 ft 427 kts 149°
2026-04-30 13:00 46.83284 -1.41222 37079 ft 427 kts 149°
2026-04-30 13:00 46.78198 -1.36726 37081 ft 427 kts 149°
2026-04-30 13:01 46.73107 -1.32249 37084 ft 427 kts 149°
2026-04-30 13:01 46.68022 -1.27782 37086 ft 427 kts 149°
2026-04-30 13:02 46.62921 -1.23307 37087 ft 428 kts 149°
2026-04-30 13:02 46.57845 -1.18873 37077 ft 428 kts 149°
2026-04-30 13:03 46.52738 -1.14409 37076 ft 428 kts 149°
2026-04-30 13:03 46.47627 -1.09955 37079 ft 428 kts 149°
2026-04-30 13:04 46.42512 -1.05506 37082 ft 429 kts 149°
2026-04-30 13:04 46.37395 -1.01056 37085 ft 429 kts 149°
2026-04-30 13:05 46.32272 -0.96624 37087 ft 429 kts 149°
2026-04-30 13:06 46.24597 -0.90018 37096 ft 430 kts 149°
2026-04-30 13:06 46.19458 -0.85593 37089 ft 429 kts 149°
2026-04-30 13:07 46.14319 -0.81175 37090 ft 429 kts 149°
2026-04-30 13:07 46.09186 -0.76777 37089 ft 429 kts 149°
2026-04-30 13:08 46.04045 -0.72379 37093 ft 430 kts 149°
2026-04-30 13:08 45.98897 -0.67984 37098 ft 431 kts 149°
2026-04-30 13:09 45.93741 -0.63593 37093 ft 430 kts 149°
2026-04-30 13:09 45.88611 -0.59231 37105 ft 431 kts 149°
2026-04-30 13:10 45.83443 -0.54848 37101 ft 431 kts 149°
2026-04-30 13:10 45.78267 -0.50475 37105 ft 432 kts 149°
2026-04-30 13:11 45.73090 -0.46100 37116 ft 432 kts 150°
2026-04-30 13:11 45.67909 -0.41733 37122 ft 433 kts 150°
2026-04-30 13:12 45.62710 -0.37370 37120 ft 433 kts 150°
2026-04-30 13:12 45.57516 -0.33015 37125 ft 433 kts 150°
2026-04-30 13:13 45.49714 -0.26486 37105 ft 434 kts 151°
2026-04-30 13:14 45.41916 -0.20005 37111 ft 434 kts 151°
2026-04-30 13:14 45.34069 -0.13492 37094 ft 435 kts 151°
2026-04-30 13:15 45.26185 -0.06962 35784 ft 439 kts 151°
2026-04-30 13:15 45.23540 -0.04777 35028 ft 441 kts 150°
2026-04-30 13:16 45.20907 -0.02599 34545 ft 435 kts 150°
2026-04-30 13:16 45.18298 -0.00443 33979 ft 432 kts 151°
2026-04-30 13:16 45.15734 0.01672 33429 ft 430 kts 150°
2026-04-30 13:17 45.10611 0.05885 32361 ft 421 kts 150°
2026-04-30 13:17 45.08091 0.07950 31833 ft 415 kts 150°
2026-04-30 13:17 45.03942 0.11339 30988 ft 407 kts 150°
2026-04-30 13:18 45.00639 0.13779 30337 ft 401 kts 152°
2026-04-30 13:18 44.95636 0.17074 29331 ft 391 kts 155°
2026-04-30 13:18 44.93177 0.18655 28873 ft 385 kts 155°
2026-04-30 13:19 44.90763 0.20225 28435 ft 379 kts 155°
2026-04-30 13:19 44.88389 0.21794 27984 ft 374 kts 154°
2026-04-30 13:19 44.86056 0.23357 27553 ft 369 kts 154°
2026-04-30 13:19 44.83750 0.24915 27147 ft 365 kts 154°
2026-04-30 13:20 44.81475 0.26450 26740 ft 361 kts 154°
2026-04-30 13:20 44.79225 0.27966 26346 ft 356 kts 154°
2026-04-30 13:20 44.77003 0.29459 25938 ft 352 kts 154°
2026-04-30 13:20 44.74798 0.30939 25519 ft 349 kts 154°
2026-04-30 13:21 44.72614 0.32404 25098 ft 346 kts 154°
2026-04-30 13:21 44.70447 0.33856 24672 ft 343 kts 154°
2026-04-30 13:21 44.68298 0.35291 24244 ft 341 kts 154°
2026-04-30 13:22 44.64037 0.38134 23306 ft 337 kts 154°
2026-04-30 13:22 44.61921 0.39543 22868 ft 333 kts 155°
2026-04-30 13:22 44.57765 0.42304 21993 ft 328 kts 155°
2026-04-30 13:23 44.55710 0.43666 21571 ft 326 kts 155°
2026-04-30 13:23 44.51658 0.46355 20731 ft 322 kts 155°
2026-04-30 13:24 44.47619 0.49034 19896 ft 320 kts 156°
2026-04-30 13:24 44.43602 0.51686 19159 ft 320 kts 156°
2026-04-30 13:25 44.39538 0.54352 18498 ft 322 kts 157°
2026-04-30 13:25 44.35501 0.56999 17879 ft 319 kts 157°
2026-04-30 13:26 44.29515 0.60911 16832 ft 313 kts 157°
2026-04-30 13:26 44.25586 0.63473 16066 ft 310 kts 157°
2026-04-30 13:27 44.21693 0.66005 15328 ft 307 kts 157°
2026-04-30 13:28 44.16570 0.69339 14332 ft 304 kts 157°
2026-04-30 13:28 44.12750 0.71817 13596 ft 301 kts 157°
2026-04-30 13:28 44.10864 0.73054 13189 ft 300 kts 154°
2026-04-30 13:29 44.07814 0.76881 12648 ft 293 kts 135°
2026-04-30 13:29 44.05037 0.81014 11925 ft 291 kts 135°
2026-04-30 13:30 44.00922 0.87143 10835 ft 289 kts 135°
2026-04-30 13:31 43.98184 0.91209 10133 ft 286 kts 135°
2026-04-30 13:31 43.94158 0.97187 8367 ft 278 kts 135°
2026-04-30 13:32 43.91518 1.01086 7367 ft 276 kts 134°
2026-04-30 13:32 43.88909 1.04937 6595 ft 273 kts 134°
2026-04-30 13:33 43.86328 1.08747 5794 ft 269 kts 133°
2026-04-30 13:33 43.83819 1.12441 4994 ft 262 kts 133°
2026-04-30 13:34 43.82581 1.14263 4561 ft 254 kts 133°
2026-04-30 13:34 43.79251 1.18997 4030 ft 212 kts 139°
2026-04-30 13:35 43.78119 1.20252 3822 ft 204 kts 141°
2026-04-30 13:35 43.75941 1.22541 3347 ft 187 kts 141°
2026-04-30 13:36 43.73927 1.24651 2849 ft 177 kts 141°
2026-04-30 13:36 43.72957 1.25665 2602 ft 172 kts 142°
2026-04-30 13:36 43.71133 1.27571 2174 ft 150 kts 140°
2026-04-30 13:37 43.70337 1.28403 1984 ft 139 kts 140°
2026-04-30 13:37 43.68838 1.29971 1624 ft 132 kts 140°
2026-04-30 13:38 43.67367 1.31507 1263 ft 134 kts 141°
2026-04-30 13:38 43.66631 1.32278 1105 ft 133 kts 144°
2026-04-30 13:38 43.65134 1.33830 717 ft 136 kts 144°
2026-04-30 13:39 43.63702 1.35330 491 ft 101 kts 143°
2026-04-30 13:39 43.62995 1.36066 492 ft 47 kts 143°
2026-04-30 13:40 43.62756 1.36317 494 ft 41 kts 143°
2026-04-30 13:40 43.62538 1.36543 491 ft 37 kts 142°
2026-04-30 13:40 43.62446 1.36723 485 ft 19 kts 82°
2026-04-30 13:40 43.62460 1.36877 486 ft 4 kts 83°
2026-04-30 13:41 43.62460 1.36878 487 ft 0 kts 83°
2026-04-30 13:41 43.62460 1.36879 487 ft 2 kts 83°
2026-04-30 13:41 43.62468 1.36972 493 ft 13 kts 83°
2026-04-30 13:42 43.62479 1.37086 494 ft 11 kts 83°
2026-04-30 13:42 43.62488 1.37184 489 ft 8 kts 81°
2026-04-30 13:42 43.62537 1.37290 490 ft 4 kts 40°
2026-04-30 13:44 43.62538 1.37291 490 ft 1 kts 38°
2026-04-30 13:44 43.62592 1.37262 485 ft 12 kts 323°
2026-04-30 13:44 43.62656 1.37194 494 ft 11 kts 321°
2026-04-30 13:44 43.62734 1.37108 490 ft 20 kts 315°
2026-04-30 13:45 43.62967 1.36879 494 ft 22 kts 321°
2026-04-30 13:45 43.63088 1.36744 494 ft 23 kts 323°
2026-04-30 13:45 43.63206 1.36633 488 ft 16 kts 339°
2026-04-30 13:46 43.63276 1.36686 487 ft 8 kts 68°
2026-04-30 13:46 43.63300 1.36745 491 ft 8 kts 56°
2026-04-30 13:46 43.63346 1.36831 490 ft 9 kts 53°
2026-04-30 13:46 43.63323 1.36870 490 ft 5 kts 153°
2026-04-30 13:47 43.63297 1.36893 490 ft 4 kts 144°
2026-04-30 13:47 43.63278 1.36912 492 ft 3 kts 144°
2026-04-30 13:47 43.63272 1.36917 494 ft 0 kts 144°